Weather History for KHCD - July, 2013

Change the Weather History Date:

Wednesday, July 3, 2013

  Actual Average Record
Temperature  
Mean Temperature 69 °F -  
Max Temperature 82 °F 82 °F 96 °F (1977)
Min Temperature 56 °F 61 °F 46 °F (1967)
Cooling Degree Days 4    
Growing Degree Days 19 (Base 50)    
Moisture  
Dew Point 56 °F    
Average Humidity 61    
Maximum Humidity 97    
Minimum Humidity 35    
Precipitation  
Precipitation 0.00 in - - ()
Sea Level Pressure  
Sea Level Pressure 30.04 in    
Wind  
Wind Speed 1 mph (ESE)    
Max Wind Speed 10 mph    
Max Gust Speed -    
Visibility 10 miles    
Events      
Averages and records for this station are not official NWS values.
T = Trace of Precipitation, MM = Missing Value Source: NWS Daily Summary

Daily Weather History Graph

Daily Weather History Graph

Search for Another Location

Airport or City:

Trip Planner

Search our weather history database for the weather conditions in past years. The results will help you decide how hot, cold, wet, or windy it might be!

Date:

Astronomy

Jul. 03, 2013 Rise Set
Actual Time 5:36 AM CDT 9:06 PM CDT
Civil Twilight 4:59 AM CDT 9:43 PM CDT
Nautical Twilight 4:11 AM CDT 10:32 PM CDT
Astronomical Twilight 3:08 AM CDT 11:34 PM CDT
Moon 2:20 AM CDT (7/3) 5:13 PM CDT (7/3)
Length of Visible Light 16h 43m
Length of Day
15h 30m
Waning Crescent, 18% of the Moon is Illuminated
Jul 3
Waning Crescent
Jul 8
New
Jul 15
First Quarter
Jul 22
Full
Jul 29
Last Quarter

Hourly Weather History & Observations

Time (CDT) Temp. Heat Index Dew Point Humidity Pressure Visibility Wind Dir Wind Speed Gust Speed Precip Events Conditions
12:14 AM 66.2 °F - 58.8 °F 77% 30.09 in 10.0 mi Calm Calm - N/A   Clear
12:34 AM 65.1 °F - 59.4 °F 82% 30.09 in 10.0 mi Calm Calm - N/A   Scattered Clouds
12:54 AM 63.7 °F - 59.9 °F 87% 30.09 in 10.0 mi Calm Calm - N/A   Scattered Clouds
1:14 AM 63.3 °F - 59.2 °F 86% 30.09 in 10.0 mi Calm Calm - N/A   Scattered Clouds
1:34 AM 63.0 °F - 59.0 °F 87% 30.09 in 10.0 mi Calm Calm - N/A   Scattered Clouds
1:53 AM 62.4 °F - 58.8 °F 88% 30.08 in 10.0 mi Calm Calm - N/A   Clear
2:14 AM 62.6 °F - 59.4 °F 89% 30.08 in 10.0 mi Calm Calm - N/A   Clear
2:33 AM 61.0 °F - 58.8 °F 93% 30.07 in 10.0 mi Calm Calm - N/A   Clear
2:54 AM 60.1 °F - 57.7 °F 92% 30.07 in 10.0 mi Calm Calm - N/A   Clear
3:14 AM 61.0 °F - 57.4 °F 88% 30.07 in 10.0 mi Calm Calm - N/A   Clear
3:33 AM 59.9 °F - 57.4 °F 91% 30.07 in 10.0 mi Calm Calm - N/A   Clear
3:54 AM 58.3 °F - 56.7 °F 94% 30.07 in 10.0 mi Calm Calm - N/A   Clear
4:14 AM 59.5 °F - 56.8 °F 91% 30.06 in 10.0 mi Calm Calm - N/A   Clear
4:34 AM 57.6 °F - 56.3 °F 96% 30.06 in 10.0 mi Calm Calm - N/A   Clear
4:54 AM 58.3 °F - 56.5 °F 94% 30.06 in 10.0 mi Calm Calm - N/A   Clear
5:13 AM 59.4 °F - 56.3 °F 90% 30.06 in 10.0 mi Calm Calm - N/A   Clear
5:34 AM 58.3 °F - 57.0 °F 96% 30.07 in 10.0 mi Calm Calm - N/A   Clear
5:54 AM 56.3 °F - 55.4 °F 97% 30.07 in 10.0 mi Calm Calm - N/A   Clear
6:14 AM 57.6 °F - 55.8 °F 94% 30.07 in 10.0 mi Calm Calm - N/A   Clear
6:33 AM 59.0 °F - 57.0 °F 93% 30.07 in 10.0 mi Calm Calm - N/A   Clear
6:54 AM 61.7 °F - 59.5 °F 93% 30.07 in 7.0 mi Calm Calm - N/A   Clear
7:13 AM 64.4 °F - 60.6 °F 88% 30.07 in 10.0 mi Calm Calm - N/A   Clear
7:34 AM 65.7 °F - 60.3 °F 83% 30.08 in 10.0 mi Calm Calm - N/A   Clear
7:54 AM 67.3 °F - 61.0 °F 80% 30.08 in 10.0 mi SE 3.5 mph - N/A   Clear
8:14 AM 69.1 °F - 60.6 °F 74% 30.08 in 10.0 mi Calm Calm - N/A   Clear
8:34 AM 70.9 °F - 60.1 °F 69% 30.08 in 10.0 mi Calm Calm - N/A   Clear
8:50 AM 72.3 °F - 60.3 °F 66% 30.08 in 10.0 mi Calm Calm - N/A   Clear
9:18 AM 74.5 °F - 58.6 °F 58% 30.08 in 10.0 mi Calm Calm - N/A   Clear
9:34 AM 75.6 °F - 59.2 °F 57% 30.08 in 10.0 mi Calm Calm - N/A   Clear
9:53 AM 77.0 °F - 57.9 °F 52% 30.08 in 10.0 mi Calm Calm - N/A   Clear
10:14 AM 77.2 °F - 57.0 °F 50% 30.07 in 10.0 mi Calm Calm - N/A   Clear
10:34 AM 79.2 °F - 55.0 °F 43% 30.07 in 10.0 mi ENE 4.6 mph - N/A   Clear
10:54 AM 79.5 °F - 54.9 °F 42% 30.07 in 10.0 mi NE 3.5 mph - N/A   Clear
11:13 AM 79.2 °F - 52.5 °F 39% 30.06 in 7.0 mi ESE 6.9 mph - N/A   Clear
11:34 AM 79.7 °F - 55.4 °F 43% 30.06 in 10.0 mi East 6.9 mph - N/A   Clear
11:36 AM 79.9 °F - 55.2 °F 43% 30.06 in 10.0 mi ESE 5.8 mph - N/A   Clear
12:05 PM 80.6 °F 80.3 °F 53.6 °F 39% 30.06 in 10.0 mi ESE 5.8 mph - N/A   Clear
12:25 PM 82.4 °F 81.7 °F 55.4 °F 39% 30.05 in 10.0 mi ESE 10.4 mph - N/A   Clear
12:45 PM 80.6 °F 80.5 °F 55.4 °F 42% 30.05 in 10.0 mi SE 6.9 mph - N/A   Clear
1:18 PM 80.6 °F 80.4 °F 54.5 °F 40% 30.04 in 10.0 mi ESE 10.4 mph - N/A   Mostly Cloudy
1:34 PM 79.7 °F - 52.9 °F 39% 30.04 in 10.0 mi ESE 9.2 mph - N/A   Mostly Cloudy
1:53 PM 81.7 °F 80.9 °F 53.2 °F 37% 30.04 in 10.0 mi SSE 8.1 mph - N/A   Scattered Clouds
2:14 PM 81.7 °F 80.9 °F 53.1 °F 37% 30.03 in 10.0 mi East 3.5 mph - N/A   Scattered Clouds
2:34 PM 81.9 °F - 52.3 °F 36% 30.03 in 10.0 mi ESE 4.6 mph - N/A   Clear
2:53 PM 82.2 °F - 52.5 °F 36% 30.03 in 10.0 mi ENE 8.1 mph - N/A   Scattered Clouds
3:14 PM 81.7 °F - 52.2 °F 36% 30.02 in 10.0 mi SSE 4.6 mph - N/A   Scattered Clouds
3:31 PM 80.2 °F - 52.7 °F 38% 30.02 in 10.0 mi ESE 4.6 mph - N/A   Clear
3:53 PM 81.3 °F - 51.4 °F 35% 30.02 in 10.0 mi Calm Calm - N/A   Clear
4:10 PM 82.4 °F 81.4 °F 53.4 °F 37% 30.01 in 10.0 mi ESE 6.9 mph - N/A   Scattered Clouds
4:34 PM 81.9 °F 81.1 °F 54.0 °F 38% 30.01 in 10.0 mi ESE 5.8 mph - N/A   Scattered Clouds
4:54 PM 81.9 °F - 52.9 °F 37% 30.00 in 10.0 mi SSE 5.8 mph - N/A   Scattered Clouds
5:14 PM 81.0 °F - 52.5 °F 37% 30.00 in 10.0 mi SSE 4.6 mph - N/A   Scattered Clouds
5:34 PM 81.3 °F - 51.8 °F 36% 29.99 in 10.0 mi SE 3.5 mph - N/A   Clear
5:54 PM 81.7 °F - 52.3 °F 36% 29.99 in 10.0 mi Calm Calm - N/A   Clear
6:14 PM 81.7 °F - 51.8 °F 35% 29.99 in 10.0 mi SSE 4.6 mph - N/A   Clear
6:33 PM 81.7 °F - 52.9 °F 37% 29.99 in 10.0 mi SE 4.6 mph - N/A   Clear
6:54 PM 81.5 °F - 52.0 °F 36% 29.98 in 10.0 mi South 3.5 mph - N/A   Clear
7:14 PM 80.6 °F 80.3 °F 53.2 °F 39% 29.98 in 10.0 mi Calm Calm - N/A   Clear
7:33 PM 80.2 °F 80.0 °F 53.2 °F 39% 29.98 in 10.0 mi SSE 3.5 mph - N/A   Clear
7:35 PM 80.2 °F 80.0 °F 53.4 °F 39% 29.98 in 10.0 mi Calm Calm - N/A   Clear
8:05 PM 78.8 °F - 55.4 °F 44% 29.97 in 10.0 mi Calm Calm - N/A   Clear
8:25 PM 77.0 °F - 57.2 °F 50% 29.97 in 10.0 mi Calm Calm - N/A   Clear
8:45 PM 75.2 °F - 57.2 °F 53% 29.97 in 10.0 mi SE 3.5 mph - N/A   Clear
9:05 PM 73.4 °F - 57.2 °F 57% 29.97 in 10.0 mi Calm Calm - N/A   Clear
9:25 PM 73.4 °F - 55.4 °F 53% 29.97 in 10.0 mi SE 3.5 mph - N/A   Clear
9:45 PM 69.8 °F - 57.2 °F 64% 29.97 in 10.0 mi Calm Calm - N/A   Clear
10:05 PM 69.8 °F - 57.2 °F 64% 29.98 in 10.0 mi Calm Calm - N/A   Clear
10:25 PM 68.0 °F - 55.4 °F 64% 29.98 in 10.0 mi Calm Calm - N/A   Clear
10:45 PM 68.0 °F - 57.2 °F 68% 29.98 in 10.0 mi ESE 3.5 mph - N/A   Clear
11:05 PM 68.0 °F - 57.2 °F 68% 29.97 in 10.0 mi Calm Calm - N/A   Clear
11:25 PM 68.0 °F - 57.2 °F 68% 29.98 in 10.0 mi Calm Calm - N/A   Clear
11:45 PM 64.4 °F - 59.0 °F 83% 29.97 in 10.0 mi Calm Calm - N/A   Clear